Eagle, AK

6:44 AM AKST on November 12, 2019 (GMT -0900)
Eagle

Weather History for PAEG - October, 2019

Change the Weather History Date:

Sunday, October 20, 2019

  Actual Average (PABN) Record (PABN)
Temperature  
Mean Temperature 24 °F -  
Max Temperature 33 °F 22 °F 44 °F (2013)
Min Temperature 14 °F 12 °F -5 °F (1996)
Degree Days  
Heating Degree Days 42    
Moisture  
Dew Point 20 °F    
Average Humidity 76    
Maximum Humidity 88    
Minimum Humidity 61    
Precipitation  
Precipitation 0.00 in - - ()
Sea Level Pressure  
Sea Level Pressure 29.75 in    
Wind  
Wind Speed 0 mph (South)    
Max Wind Speed 4 mph    
Max Gust Speed -    
Visibility 10 miles    
Events      
Averages and records for this station are not official NWS values.
T = Trace of Precipitation, MM = Missing Value Source: NWS Daily Summary

Daily Weather History Graph

Daily Weather History Graph

Search for Another Location

Airport or City:

Astronomy

Oct. 20, 2019 Rise Set
Actual Time 8:32 AM AKDT 5:44 PM AKDT
Civil Twilight 7:41 AM AKDT 6:35 PM AKDT
Nautical Twilight 6:44 AM AKDT 7:32 PM AKDT
Astronomical Twilight 5:47 AM AKDT 8:29 PM AKDT
Moon 9:05 PM AKDT (10/20) 5:07 PM AKDT (10/20)
Length of Visible Light 10h 54m
Length of Day
9h 12m
Waning Gibbous, 58% of the Moon is Illuminated
Oct 20
Waning Gibbous
Oct 21
Last Quarter
Oct 27
New
Nov 4
First Quarter
Nov 12
Full

Hourly Weather History & Observations

Time (AKDT) Temp. Windchill Dew Point Humidity Pressure Visibility Wind Dir Wind Speed Gust Speed Precip Events Conditions
12:53 AM 30.9 °F - 19.0 °F 61% 29.68 in 10.0 mi Calm Calm - N/A   Overcast
1:53 AM 30.9 °F - 19.9 °F 64% 29.70 in 10.0 mi Calm Calm - N/A   Overcast
2:53 AM 30.0 °F - 21.9 °F 72% 29.71 in 10.0 mi Calm Calm - N/A   Overcast
3:53 AM 30.0 °F - 23.0 °F 75% 29.72 in 10.0 mi Calm Calm - N/A   Overcast
4:53 AM 30.0 °F - 23.0 °F 75% 29.73 in 10.0 mi Calm Calm - N/A   Overcast
5:53 AM 30.0 °F - 23.0 °F 75% 29.74 in 10.0 mi Calm Calm - N/A   Overcast
6:53 AM 28.9 °F - 24.1 °F 82% 29.74 in 10.0 mi Calm Calm - N/A   Overcast
7:53 AM 28.9 °F - 24.1 °F 82% 29.75 in 10.0 mi Calm Calm - N/A   Overcast
8:53 AM 28.9 °F - 24.1 °F 82% 29.75 in 10.0 mi Calm Calm - N/A   Overcast
9:53 AM 28.9 °F - 23.0 °F 78% 29.76 in 10.0 mi Calm Calm - N/A   Overcast
10:53 AM 30.0 °F - 21.9 °F 72% 29.76 in 10.0 mi Calm Calm - N/A   Overcast
11:53 AM 30.9 °F - 21.9 °F 69% 29.78 in 10.0 mi Calm Calm - N/A   Overcast
12:53 PM 32.0 °F - 21.9 °F 66% 29.78 in 10.0 mi Calm Calm - N/A   Overcast
1:17 PM 32.0 °F - 21.9 °F 66% 29.74 in 10.0 mi Calm Calm - N/A   Overcast
1:53 PM 33.1 °F - 23.0 °F 66% 29.77 in 10.0 mi Calm Calm - N/A   Mostly Cloudy
2:53 PM 33.1 °F - 23.0 °F 66% 29.77 in 10.0 mi Calm Calm - N/A   Clear
3:53 PM 32.0 °F - 23.0 °F 69% 29.77 in 10.0 mi Calm Calm - N/A   Clear
4:53 PM 30.0 °F - 21.9 °F 72% 29.77 in 10.0 mi Calm Calm - N/A   Clear
5:53 PM 26.1 °F 21.9 °F 21.0 °F 81% 29.77 in 10.0 mi South 3.5 mph - N/A   Clear
6:53 PM 21.0 °F - 18.0 °F 88% 29.78 in 10.0 mi Calm Calm - N/A   Clear
7:53 PM 17.1 °F 11.7 °F 14.0 °F 88% 29.78 in 10.0 mi South 3.5 mph - N/A   Clear
8:53 PM 14.0 °F - 10.9 °F 88% 29.78 in 10.0 mi Calm Calm - N/A   Clear
9:53 PM 15.1 °F - 12.0 °F 88% 29.78 in 10.0 mi Calm Calm - N/A   Mostly Cloudy
10:33 PM 16.0 °F - 12.9 °F 88% 29.73 in 10.0 mi Calm Calm - N/A   Overcast
10:53 PM 17.1 °F - 14.0 °F 88% 29.78 in 10.0 mi Calm Calm - N/A   Overcast
11:53 PM 19.0 °F - 15.1 °F 85% 29.78 in 10.0 mi Calm Calm - N/A   Overcast